FW0527 Weather Reports


Display with metric or nautical units.
time (UTC)temp
F
wind
direction
speed
MPH
gust
MPH
rain 1hr
in
rain 24hr
in
rain mn
in
humidity
%
barometer
mb
20260510230010 85 305 0.0 0.0 0.00 0.00 0.00 26 1011.6
20260510224509 86 300 0.0 4.0 0.00 0.00 0.00 25 1011.5
20260510223007 88 309 0.0 12.0 0.00 0.00 0.00 23 1011.6
20260510221508 89 307 0.0 3.0 0.00 0.00 0.00 23 1011.5
20260510220005 90 18 0.0 4.0 0.00 0.00 0.00 24 1011.6
20260510214503 91 284 0.0 9.0 0.00 0.00 0.00 21 1011.6
20260510213001 90 355 0.0 8.0 0.00 0.00 0.00 19 1011.9
20260510211702 90 323 0.0 1.0 0.00 0.00 0.00 20 1011.9
20260510210101 90 355 0.0 13.0 0.00 0.00 0.00 21 1011.9
20260510204609 90 336 0.0 9.0 0.00 0.00 0.00 22 1011.9
20260510203055 91 300 0.0 8.0 0.00 0.00 0.00 20 1012.0
20260510201551 91 268 0.0 6.0 0.00 0.00 0.00 20 1012.1
20260510200113 90 331 0.0 3.0 0.00 0.00 0.00 16 1012.0
20260510194555 91 259 0.0 0.0 0.00 0.00 0.00 16 1011.8
20260510193101 91 260 0.0 4.0 0.00 0.00 0.00 17 1011.9
20260510191555 92 341 0.0 12.0 0.00 0.00 0.00 16 1012.0
20260510190045 92 309 0.0 9.0 0.00 0.00 0.00 16 1011.9
20260510184542 91 317 0.0 8.0 0.00 0.00 0.00 15 1012.0
20260510183048 90 295 0.0 9.0 0.00 0.00 0.00 14 1012.1
20260510181543 90 306 0.0 0.0 0.00 0.00 0.00 14 1012.1
20260510180039 90 324 0.0 8.0 0.00 0.00 0.00 13 1012.1
20260510174543 90 232 0.0 5.0 0.00 0.00 0.00 13 1012.0
20260510173039 90 327 0.0 8.0 0.00 0.00 0.00 12 1012.0
20260510171534 89 304 0.0 1.0 0.00 0.00 0.00 15 1011.7
20260510170029 87 302 0.0 0.0 0.00 0.00 0.00 17 1011.8
20260510164525 85 304 0.0 1.0 0.00 0.00 0.00 17 1011.8
20260510163021 82 274 0.0 0.0 0.00 0.00 0.00 19 1011.7
20260510161516 78 228 0.0 0.0 0.00 0.00 0.00 21 1011.5
20260510160013 73 123 0.0 0.0 0.00 0.00 0.00 28 1011.5
20260510154507 68 123 0.0 0.0 0.00 0.00 0.00 35 1011.5
20260510153102 64 123 0.0 0.0 0.00 0.00 0.00 41 1011.4
20260510151602 60 123 0.0 0.0 0.00 0.00 0.00 42 1011.3
20260510150055 58 123 0.0 0.0 0.00 0.00 0.00 39 1011.2
20260510144552 56 119 0.0 0.0 0.00 0.00 0.00 41 1011.2
20260510143046 55 120 0.0 0.0 0.00 0.00 0.00 37 1011.3
20260510141554 54 119 0.0 0.0 0.00 0.00 0.00 38 1011.1
20260510140040 53 119 0.0 0.0 0.00 0.00 0.00 37 1011.3
20260510134538 52 116 0.0 0.0 0.00 0.00 0.00 30 1011.1
20260510133040 51 115 0.0 0.0 0.00 0.00 0.00 27 1010.9
20260510131534 51 115 0.0 0.0 0.00 0.00 0.00 29 1010.8
20260510130034 51 115 0.0 0.0 0.00 0.00 0.00 31 1010.8
20260510124534 51 115 0.0 0.0 0.00 0.00 0.00 29 1010.7
20260510123032 51 114 0.0 0.0 0.00 0.00 0.00 29 1010.6
20260510121531 51 114 0.0 0.0 0.00 0.00 0.00 30 1010.7
20260510120031 52 114 0.0 0.0 0.00 0.00 0.00 28 1010.7
20260510114528 52 114 0.0 0.0 0.00 0.00 0.00 26 1010.7
20260510113026 52 114 0.0 0.0 0.00 0.00 0.00 28 1010.8
20260510111525 52 114 0.0 0.0 0.00 0.00 0.00 22 1011.0
20260510110027 52 125 0.0 0.0 0.00 0.00 0.00 29 1011.1
20260510104521 52 123 0.0 0.0 0.00 0.00 0.00 25 1011.0
20260510103019 52 124 0.0 0.0 0.00 0.00 0.00 24 1011.1
20260510101517 52 123 0.0 0.0 0.00 0.00 0.00 24 1011.2
20260510100016 52 111 0.0 0.0 0.00 0.00 0.00 25 1011.3
20260510094515 52 111 0.0 0.0 0.00 0.00 0.00 28 1011.4
20260510093013 51 110 0.0 0.0 0.00 0.00 0.00 24 1011.4
20260510091513 51 113 0.0 1.0 0.00 0.00 0.00 26 1011.3
20260510090010 51 116 0.0 0.0 0.00 0.00 0.00 27 1011.4
20260510084508 51 117 0.0 0.0 0.00 0.00 0.00 31 1011.4
20260510083005 51 121 0.0 0.0 0.00 0.00 0.00 30 1011.6
20260510081507 50 116 0.0 0.0 0.00 0.00 0.00 29 1011.7
20260510080002 50 115 0.0 0.0 0.00 0.00 0.00 32 1011.7
20260510074601 50 107 0.0 0.0 0.00 0.00 0.00 34 1011.8
20260510073113 50 107 0.0 0.0 0.00 0.00 0.00 38 1011.8
20260510071604 51 105 0.0 0.0 0.00 0.00 0.00 44 1011.9
20260510070051 51 105 0.0 0.0 0.00 0.00 0.00 40 1011.9
20260510064559 51 111 0.0 0.0 0.00 0.00 0.00 46 1011.8
20260510063050 51 118 0.0 0.0 0.00 0.00 0.00 46 1011.8
20260510061551 51 121 0.0 0.0 0.00 0.00 0.00 49 1011.8
20260510060049 52 132 0.0 0.0 0.00 0.00 0.00 56 1011.6
20260510054548 53 132 0.0 0.0 0.00 0.00 0.00 58 1011.7
20260510053049 54 132 0.0 0.0 0.00 0.00 0.00 61 1011.8
20260510051550 54 132 0.0 0.0 0.00 0.00 0.00 63 1011.8
20260510050047 55 132 0.0 0.0 0.00 0.00 0.00 65 1011.7
20260510044550 56 137 0.0 0.0 0.00 0.00 0.00 67 1011.7
20260510043053 56 109 0.0 0.0 0.00 0.00 0.00 68 1011.8
20260510041549 57 302 0.0 0.0 0.00 0.00 0.00 66 1011.4
20260510040050 58 301 0.0 0.0 0.00 0.00 0.00 64 1011.3
20260510034547 60 301 0.0 0.0 0.00 0.00 0.00 61 1011.3
20260510033046 62 301 0.0 0.0 0.00 0.00 0.00 58 1011.0
20260510031553 63 301 0.0 0.0 0.00 0.00 0.00 56 1010.9
20260510030044 65 301 0.0 0.0 0.00 0.00 0.00 54 1010.7
20260510024544 67 301 0.0 0.0 0.00 0.00 0.00 53 1010.5
20260510023043 68 301 0.0 0.0 0.00 0.00 0.00 52 1010.6
20260510021543 69 301 0.0 0.0 0.00 0.00 0.00 51 1010.5
20260510020042 70 301 0.0 0.0 0.00 0.00 0.00 49 1010.5
20260510014542 71 304 0.0 0.0 0.00 0.00 0.00 48 1010.5
20260510013041 72 306 0.0 0.0 0.00 0.00 0.00 46 1010.4
20260510011541 73 327 0.0 0.0 0.00 0.00 0.00 45 1010.4
20260510010040 74 320 0.0 2.0 0.00 0.00 0.00 43 1010.4
20260510004541 76 263 0.0 1.0 0.00 0.00 0.00 42 1010.4
20260510003041 76 262 0.0 0.0 0.00 0.00 0.00 40 1010.4
20260510001539 77 279 0.0 0.0 0.00 0.00 0.00 40 1010.4
20260510000037 77 302 0.0 3.0 0.00 0.00 0.00 39 1010.4
20260509234538 78 217 0.0 0.0 0.00 0.00 0.00 37 1010.4
20260509233036 79 272 0.0 5.0 0.00 0.00 0.00 38 1010.5
20260509231535 80 331 0.0 2.0 0.00 0.00 0.00 37 1010.6